CST,Max TemperatureF,Mean TemperatureF,Min TemperatureF,Max Dew PointF,MeanDew PointF,Min DewpointF,Max Humidity, Mean Humidity, Min Humidity, Max Sea Level PressureIn, Mean Sea Level PressureIn, Min Sea Level PressureIn, Max VisibilityMiles, Mean VisibilityMiles, Min VisibilityMiles, Max Wind SpeedMPH, Mean Wind SpeedMPH, Max Gust SpeedMPH,PrecipitationIn, CloudCover, Events, WindDirDegrees
2011-12-1,50,39,28,33,29,23,89,70,50,30.33,30.27,30.22,10,10,10,12,5,15,0.00,0,,186
2011-12-2,43,38,32,37,31,27,89,77,64,30.49,30.41,30.33,10,9,6,17,8,22,T,7,Rain,67
2011-12-3,58,51,43,44,40,37,76,62,47,30.30,30.16,29.95,10,10,5,28,16,36,0.13,6,Rain,170
2011-12-4,54,43,32,50,38,27,89,83,76,30.32,30.10,29.91,10,10,8,25,12,37,T,8,,285
2011-12-5,34,33,31,30,27,25,82,76,69,30.33,30.29,30.25,10,10,8,17,12,23,0.00,8,,348
2011-12-6,39,36,33,32,31,28,96,80,64,30.28,30.23,30.18,10,9,6,14,6,18,T,8,Snow,354
2011-12-7,37,32,27,31,24,16,92,70,47,30.21,30.16,30.12,10,8,1,18,9,22,T,5,,280
2011-12-8,41,33,24,30,25,20,89,70,51,30.30,30.23,30.20,10,9,4,9,3,12,0.01,6,Snow,280
2011-12-9,34,26,18,30,21,8,92,66,39,30.54,30.34,30.21,10,8,2,17,7,22,0.01,4,Snow,338
2011-12-10,33,23,13,19,13,5,88,69,49,30.62,30.55,30.49,10,10,10,14,7,18,0.00,0,,224
2011-12-11,46,36,26,31,24,19,81,67,53,30.51,30.44,30.36,10,10,10,16,11,20,0.00,0,,178
2011-12-12,49,38,26,32,25,21,81,59,37,30.43,30.39,30.36,10,10,10,14,8,16,0.00,4,,172
2011-12-13,45,43,40,43,39,32,100,81,62,30.43,30.36,30.23,10,5,2,14,6,17,0.25,8,Rain,186
2011-12-14,57,51,45,55,49,42,93,88,83,30.20,29.95,29.78,10,8,2,23,14,29,0.34,8,Rain-Thunderstorm,184
2011-12-15,59,46,32,56,40,24,96,80,64,30.34,29.99,29.75,10,9,2,26,13,32,0.12,7,Rain,278
2011-12-16,36,31,25,26,24,21,92,78,64,30.46,30.39,30.33,10,10,10,12,4,14,0.00,1,,314
2011-12-17,42,34,26,32,27,24,92,77,62,30.38,30.30,30.25,10,10,10,17,7,21,0.00,3,,240
2011-12-18,52,38,24,36,31,21,92,73,54,30.28,30.17,29.99,10,10,9,22,10,30,0.00,1,,201
2011-12-19,52,46,40,46,40,34,96,76,56,30.16,30.06,29.96,10,8,4,17,11,24,0.65,8,Rain,255
2011-12-20,45,42,38,45,40,36,100,93,86,30.14,29.93,29.74,10,3,0,20,8,24,0.43,8,Fog-Rain,93
2011-12-21,45,39,33,45,39,31,100,91,82,30.01,29.81,29.69,10,7,1,17,8,22,0.03,7,Rain,259
2011-12-22,40,35,30,36,32,29,100,90,79,30.31,30.13,30.02,10,7,2,17,6,23,0.00,5,,332
2011-12-23,34,31,27,28,24,22,85,77,69,30.44,30.36,30.29,10,10,10,17,8,22,0.00,5,,278
2011-12-24,42,33,24,29,25,19,81,69,57,30.40,30.34,30.30,10,10,10,13,7,16,0.00,0,,218
2011-12-25,48,39,29,32,27,24,85,67,49,30.40,30.31,30.24,10,10,10,21,9,26,0.00,0,,264
2011-12-26,42,33,23,34,28,19,100,82,64,30.38,30.17,29.90,10,9,4,18,6,23,0.40,3,Rain,189
2011-12-27,41,36,31,34,31,25,100,82,64,30.08,29.81,29.69,10,7,2,28,12,35,0.19,7,Rain-Snow,263
2011-12-28,38,33,27,30,27,24,92,78,64,30.12,30.03,29.85,10,10,10,18,8,24,0.00,2,,220
2011-12-29,54,46,37,39,35,29,76,65,54,29.84,29.72,29.66,10,10,10,23,11,29,0.00,3,,216
2011-12-30,49,44,39,41,38,35,92,79,66,29.91,29.64,29.50,10,10,4,31,17,39,0.06,8,Rain,256
2011-12-31,52,44,35,41,37,33,92,77,61,30.03,29.89,29.65,10,10,10,26,15,33,0.00,3,,188